RYR687J EDLV-LEPA

Flight info

Callsign RYR687J
Flight time 1h 54m
Altitude 24000
Route VEBAK2R VEBAK Z283 LNO/N0449F370 Z283 SOPOK DCT ROUSY DCT GTQ DCT POGOL DCT LASAT DCT MOROK DCT GILIR DCT GEVEA DCT INCUS DCT BALSI DCT RETNO DCT TUPOX DCT MTG DCT DIVKO DCT VATIR DCT PIVUS DCT BODEQ DCT VERSO DCT LUNIK
Aircraft B38M/M-SDE1FGHILORVWXY/HB1

Departure

Time 2026-04-22 14:53
Airport Weeze (Niederrhein) Airport (EDLV)

Arrival

Time 2026-04-22 16:47
Airport Palma de Mallorca Airport (LEPA)
Time Latitude Longitude Altitude Speed Heading
2026-04-22 14:33 51.59997 6.14869 107 ft 0 kts 93°
2026-04-22 14:42 51.59997 6.14853 107 ft 2 kts 89°
2026-04-22 14:42 51.59996 6.14829 108 ft 2 kts 80°
2026-04-22 14:43 51.59992 6.14807 106 ft 2 kts 45°
2026-04-22 14:43 51.59980 6.14797 108 ft 2 kts
2026-04-22 14:43 51.59975 6.14797 108 ft 0 kts
2026-04-22 14:43 51.59976 6.14797 106 ft 0 kts
2026-04-22 14:48 51.60010 6.14797 105 ft 8 kts 354°
2026-04-22 14:48 51.60050 6.14726 107 ft 11 kts 275°
2026-04-22 14:48 51.60048 6.14560 106 ft 19 kts 272°
2026-04-22 14:49 51.60055 6.14303 105 ft 27 kts 273°
2026-04-22 14:49 51.60061 6.13984 105 ft 30 kts 273°
2026-04-22 14:49 51.60068 6.13643 104 ft 31 kts 272°
2026-04-22 14:49 51.60079 6.13286 101 ft 32 kts 269°
2026-04-22 14:50 51.60084 6.12929 102 ft 31 kts 273°
2026-04-22 14:50 51.60092 6.12585 101 ft 30 kts 270°
2026-04-22 14:50 51.60104 6.12478 100 ft 2 kts 312°
2026-04-22 14:50 51.60111 6.12468 100 ft 1 kts 316°
2026-04-22 14:51 51.60128 6.12453 100 ft 5 kts 335°
2026-04-22 14:51 51.60156 6.12449 100 ft 6 kts
2026-04-22 14:51 51.60219 6.12454 100 ft 12 kts
2026-04-22 14:51 51.60280 6.12486 98 ft 5 kts 60°
2026-04-22 14:52 51.60284 6.12515 99 ft 1 kts 92°
2026-04-22 14:52 51.60283 6.12516 99 ft 1 kts 92°
2026-04-22 14:52 51.60278 6.12766 99 ft 49 kts 91°
2026-04-22 14:52 51.60265 6.13577 103 ft 95 kts 92°
2026-04-22 14:53 51.60234 6.14843 105 ft 130 kts 92°
2026-04-22 14:53 51.60183 6.16444 172 ft 155 kts 90°
2026-04-22 14:53 51.60086 6.18223 537 ft 163 kts 95°
2026-04-22 14:53 51.59974 6.20036 1027 ft 161 kts 93°
2026-04-22 14:54 51.59837 6.21905 1366 ft 173 kts 96°
2026-04-22 14:54 51.59634 6.23864 1764 ft 180 kts 96°
2026-04-22 14:54 51.59436 6.25944 1912 ft 196 kts 96°
2026-04-22 14:54 51.59241 6.28197 2196 ft 212 kts 95°
2026-04-22 14:55 51.59042 6.30594 2838 ft 219 kts 95°
2026-04-22 14:55 51.58844 6.33043 3593 ft 221 kts 95°
2026-04-22 14:55 51.58654 6.35475 4326 ft 223 kts 96°
2026-04-22 14:55 51.58494 6.37857 5058 ft 224 kts 95°
2026-04-22 14:56 51.58349 6.40362 5784 ft 225 kts 95°
2026-04-22 14:56 51.57838 6.42706 6503 ft 229 kts 130°
2026-04-22 14:56 51.56460 6.43967 7180 ft 238 kts 169°
2026-04-22 14:56 51.54787 6.43534 7650 ft 258 kts 207°
2026-04-22 14:57 51.53352 6.41637 8076 ft 276 kts 222°
2026-04-22 14:57 51.51930 6.39488 8597 ft 285 kts 218°
2026-04-22 14:57 51.50330 6.37572 9224 ft 289 kts 208°
2026-04-22 14:57 51.48505 6.36200 9895 ft 291 kts 197°
2026-04-22 14:58 51.46557 6.35190 10474 ft 299 kts 194°
2026-04-22 14:58 51.44536 6.34122 10857 ft 313 kts 197°
2026-04-22 14:58 51.42447 6.32864 11184 ft 329 kts 199°
2026-04-22 14:58 51.40292 6.31538 11582 ft 341 kts 198°
2026-04-22 14:59 51.38034 6.30203 12123 ft 349 kts 197°
2026-04-22 14:59 51.35728 6.28866 12697 ft 356 kts 197°
2026-04-22 14:59 51.33385 6.27490 13283 ft 361 kts 198°
2026-04-22 14:59 51.31010 6.26083 13915 ft 366 kts 198°
2026-04-22 15:00 51.28603 6.24666 14492 ft 371 kts 198°
2026-04-22 15:00 51.26162 6.23238 15044 ft 376 kts 198°
2026-04-22 15:00 51.23701 6.21798 15612 ft 380 kts 198°
2026-04-22 15:00 51.21207 6.20337 16169 ft 384 kts 198°
2026-04-22 15:01 51.18681 6.18858 16729 ft 388 kts 198°
2026-04-22 15:01 51.16127 6.17367 17267 ft 392 kts 197°
2026-04-22 15:01 51.13546 6.15863 17818 ft 396 kts 197°
2026-04-22 15:01 51.10985 6.14372 18354 ft 400 kts 197°
2026-04-22 15:02 51.08354 6.12842 18855 ft 403 kts 197°
2026-04-22 15:02 51.05707 6.11305 19319 ft 407 kts 197°
2026-04-22 15:02 51.03032 6.09752 19801 ft 410 kts 198°
2026-04-22 15:02 51.00460 6.07760 20262 ft 416 kts 210°
2026-04-22 15:03 50.98003 6.05296 20716 ft 419 kts 211°
2026-04-22 15:03 50.95526 6.02810 21185 ft 422 kts 210°
2026-04-22 15:03 50.92988 6.00467 21640 ft 423 kts 206°
2026-04-22 15:03 50.90378 5.98280 22088 ft 426 kts 206°
2026-04-22 15:04 50.87748 5.96065 22533 ft 429 kts 206°
2026-04-22 15:04 50.85114 5.93820 22979 ft 432 kts 206°
2026-04-22 15:04 50.82461 5.91563 23410 ft 434 kts 206°
2026-04-22 15:04 50.79788 5.89283 23844 ft 437 kts 207°
2026-04-22 15:05 50.77115 5.86963 24207 ft 440 kts 207°
2026-04-22 15:05 50.74421 5.84626 24565 ft 442 kts 207°
2026-04-22 15:05 50.71747 5.82324 24920 ft 444 kts 207°
2026-04-22 15:05 50.69022 5.79984 25283 ft 446 kts 207°
2026-04-22 15:06 50.67176 5.78396 25520 ft 448 kts 208°
2026-04-22 15:06 50.63542 5.75270 25985 ft 450 kts 208°
2026-04-22 15:06 50.60782 5.72904 26326 ft 452 kts 207°
2026-04-22 15:06 50.57840 5.71228 26663 ft 451 kts 187°
2026-04-22 15:07 50.54715 5.71119 27005 ft 449 kts 173°
2026-04-22 15:07 50.51626 5.71825 27331 ft 449 kts 167°
2026-04-22 15:07 50.48543 5.72830 27637 ft 451 kts 166°
2026-04-22 15:07 50.45480 5.73735 27945 ft 455 kts 170°
2026-04-22 15:08 50.42325 5.74272 28238 ft 458 kts 174°
2026-04-22 15:08 50.39142 5.74676 28536 ft 460 kts 173°
2026-04-22 15:08 50.35951 5.75273 28808 ft 462 kts 171°
2026-04-22 15:08 50.32762 5.75995 29077 ft 465 kts 171°
2026-04-22 15:09 50.29542 5.76636 29366 ft 467 kts 172°
2026-04-22 15:09 50.26301 5.77194 29648 ft 470 kts 172°
2026-04-22 15:09 50.23114 5.78322 29923 ft 470 kts 162°
2026-04-22 15:09 50.19965 5.79764 30179 ft 473 kts 162°
2026-04-22 15:10 50.16794 5.81192 30412 ft 476 kts 163°
2026-04-22 15:10 50.14686 5.82119 30561 ft 477 kts 163°
2026-04-22 15:10 50.11474 5.83528 30772 ft 480 kts 163°
2026-04-22 15:10 50.08256 5.84958 30982 ft 482 kts 163°
2026-04-22 15:11 50.05020 5.86404 31209 ft 485 kts 163°
2026-04-22 15:11 50.01768 5.87844 31407 ft 487 kts 163°
2026-04-22 15:11 49.98492 5.89285 31618 ft 490 kts 163°
2026-04-22 15:11 49.95235 5.90720 31828 ft 492 kts 163°
2026-04-22 15:12 49.91934 5.92179 32063 ft 494 kts 163°
2026-04-22 15:12 49.88615 5.93640 32342 ft 494 kts 163°
2026-04-22 15:12 49.85310 5.95090 32708 ft 492 kts 163°
2026-04-22 15:12 49.82017 5.96535 33002 ft 493 kts 163°
2026-04-22 15:13 49.78709 5.97988 33266 ft 493 kts 164°
2026-04-22 15:13 49.75400 5.99434 33550 ft 494 kts 164°
2026-04-22 15:13 49.72087 6.00880 33836 ft 495 kts 164°
2026-04-22 15:13 49.68810 6.02309 34136 ft 495 kts 164°
2026-04-22 15:14 49.65455 6.03773 34388 ft 495 kts 164°
2026-04-22 15:14 49.62134 6.05218 34642 ft 496 kts 164°
2026-04-22 15:14 49.58852 6.06643 34899 ft 496 kts 164°
2026-04-22 15:14 49.55530 6.08084 35149 ft 496 kts 164°
2026-04-22 15:15 49.52210 6.09523 35412 ft 496 kts 164°
2026-04-22 15:15 49.48891 6.11007 35668 ft 496 kts 158°
2026-04-22 15:15 49.45881 6.13544 35982 ft 492 kts 141°
2026-04-22 15:15 49.43234 6.16867 36243 ft 491 kts 138°
2026-04-22 15:16 49.40627 6.20269 36487 ft 492 kts 139°
2026-04-22 15:16 49.37964 6.23572 36726 ft 492 kts 140°
2026-04-22 15:16 49.35260 6.26812 37020 ft 492 kts 140°
2026-04-22 15:16 49.32580 6.30096 37255 ft 492 kts 139°
2026-04-22 15:17 49.27395 6.36450 37795 ft 458 kts 143°
2026-04-22 15:17 49.24746 6.39046 38998 ft 435 kts 149°
2026-04-22 15:17 49.22110 6.41189 39531 ft 427 kts 153°
2026-04-22 15:18 49.19369 6.43084 39256 ft 440 kts 157°
2026-04-22 15:18 49.16471 6.44809 38515 ft 466 kts 160°
2026-04-22 15:18 49.13357 6.46417 38142 ft 476 kts 162°
2026-04-22 15:18 49.10195 6.47833 38667 ft 467 kts 165°
2026-04-22 15:19 49.07102 6.49037 39536 ft 448 kts 167°
2026-04-22 15:19 49.04098 6.50057 40081 ft 439 kts 168°
2026-04-22 15:19 49.01084 6.50948 39941 ft 447 kts 170°
2026-04-22 15:19 48.97949 6.51752 39395 ft 468 kts 172°
2026-04-22 15:20 48.94670 6.52471 39067 ft 479 kts 173°
2026-04-22 15:20 48.91369 6.53078 39273 ft 474 kts 174°
2026-04-22 15:20 48.88127 6.53564 39904 ft 460 kts 176°
2026-04-22 15:20 48.84973 6.53943 40492 ft 449 kts 177°
2026-04-22 15:21 48.78694 6.54429 40183 ft 466 kts 179°
2026-04-22 15:21 48.75402 6.54541 39804 ft 479 kts 179°
2026-04-22 15:21 48.72121 6.55361 39798 ft 479 kts 158°
2026-04-22 15:22 48.65874 6.58963 39725 ft 483 kts 172°
2026-04-22 15:22 48.62527 6.59485 39400 ft 485 kts 179°
2026-04-22 15:22 48.59142 6.59614 39066 ft 487 kts 180°
2026-04-22 15:23 48.55731 6.59728 38720 ft 490 kts 178°
2026-04-22 15:23 48.52322 6.60217 38340 ft 493 kts 172°
2026-04-22 15:23 48.48974 6.61083 37976 ft 495 kts 169°
2026-04-22 15:23 48.45587 6.62093 37617 ft 497 kts 171°
2026-04-22 15:24 48.42169 6.62882 37274 ft 498 kts 174°
2026-04-22 15:24 48.38734 6.63464 37228 ft 496 kts 174°
2026-04-22 15:24 48.31839 6.64984 37203 ft 502 kts 172°
2026-04-22 15:25 48.24924 6.66485 37203 ft 502 kts 173°
2026-04-22 15:25 48.17990 6.67951 37201 ft 503 kts 173°
2026-04-22 15:26 48.11025 6.68248 37192 ft 500 kts 184°
2026-04-22 15:26 48.04083 6.67952 37185 ft 491 kts 183°
2026-04-22 15:27 48.00749 6.67846 37174 ft 480 kts 184°
2026-04-22 15:27 47.97411 6.67723 37172 ft 480 kts 184°
2026-04-22 15:27 47.90709 6.67452 37168 ft 482 kts 184°
2026-04-22 15:28 47.84007 6.67210 37160 ft 482 kts 184°
2026-04-22 15:28 47.77286 6.66951 37158 ft 484 kts 185°
2026-04-22 15:29 47.70548 6.66702 37157 ft 483 kts 185°
2026-04-22 15:30 47.60471 6.66323 37132 ft 483 kts 185°
2026-04-22 15:30 47.53721 6.66072 37153 ft 486 kts 185°
2026-04-22 15:31 47.46980 6.65822 37158 ft 484 kts 185°
2026-04-22 15:31 47.40277 6.65270 37196 ft 476 kts 200°
2026-04-22 15:31 47.37447 6.63100 36276 ft 452 kts 239°
2026-04-22 15:32 47.36541 6.59082 31506 ft 411 kts 287°
2026-04-22 15:32 47.38248 6.55722 27196 ft 448 kts 331°
2026-04-22 15:32 47.41288 6.55049 27547 ft 430 kts
2026-04-22 15:32 47.43635 6.57046 30968 ft 369 kts 41°
2026-04-22 15:33 47.44893 6.60121 32739 ft 342 kts 51°
2026-04-22 15:33 47.45653 6.63532 31151 ft 405 kts 73°
2026-04-22 15:33 47.45599 6.67972 30111 ft 454 kts 105°
2026-04-22 15:33 47.44237 6.72188 30474 ft 460 kts 126°
2026-04-22 15:34 47.41931 6.75475 30673 ft 463 kts 149°
2026-04-22 15:34 47.38996 6.77349 30790 ft 461 kts 173°
2026-04-22 15:34 47.35846 6.77548 30956 ft 448 kts 197°
2026-04-22 15:34 47.32981 6.76099 31124 ft 429 kts 220°
2026-04-22 15:35 47.31423 6.74389 31207 ft 418 kts 232°
2026-04-22 15:35 47.28790 6.70258 31329 ft 419 kts 237°
2026-04-22 15:35 47.26813 6.67026 31395 ft 428 kts 235°
2026-04-22 15:35 47.24675 6.63891 31475 ft 439 kts 231°
2026-04-22 15:36 47.22322 6.60937 31542 ft 450 kts 226°
2026-04-22 15:36 47.19742 6.58243 31684 ft 461 kts 220°
2026-04-22 15:36 47.16899 6.55922 31787 ft 475 kts 212°
2026-04-22 15:36 47.13748 6.54223 31941 ft 488 kts 204°
2026-04-22 15:37 47.10443 6.52924 32102 ft 495 kts 201°
2026-04-22 15:37 47.07078 6.51720 32275 ft 498 kts 202°
2026-04-22 15:37 47.03760 6.50275 32461 ft 497 kts 206°
2026-04-22 15:37 47.00512 6.48543 32614 ft 498 kts 208°
2026-04-22 15:38 46.97274 6.46852 32798 ft 503 kts 206°
2026-04-22 15:38 46.90500 6.43819 33166 ft 510 kts 205°
2026-04-22 15:38 46.87133 6.42196 33345 ft 511 kts 206°
2026-04-22 15:39 46.83758 6.40521 33549 ft 514 kts 206°
2026-04-22 15:39 46.80347 6.38906 33740 ft 517 kts 205°
2026-04-22 15:39 46.76913 6.37333 33904 ft 517 kts 205°
2026-04-22 15:39 46.73499 6.35733 34057 ft 515 kts 205°
2026-04-22 15:40 46.70084 6.34092 34204 ft 516 kts 206°
2026-04-22 15:40 46.66719 6.32492 34333 ft 516 kts 205°
2026-04-22 15:40 46.63296 6.30903 34479 ft 516 kts 205°
2026-04-22 15:40 46.59869 6.29307 34616 ft 515 kts 205°
2026-04-22 15:41 46.56456 6.27697 34739 ft 515 kts 205°
2026-04-22 15:41 46.53037 6.26085 34829 ft 515 kts 205°
2026-04-22 15:41 46.46253 6.22926 35022 ft 515 kts 205°
2026-04-22 15:42 46.42842 6.21334 35127 ft 515 kts 205°
2026-04-22 15:42 46.39437 6.19742 35203 ft 513 kts 205°
2026-04-22 15:42 46.32667 6.16598 35394 ft 511 kts 205°
2026-04-22 15:43 46.25879 6.13477 35574 ft 513 kts 201°
2026-04-22 15:43 46.18755 6.11736 35746 ft 518 kts 194°
2026-04-22 15:44 46.11680 6.10178 35917 ft 517 kts 195°
2026-04-22 15:44 46.04709 6.08630 36002 ft 490 kts 194°
2026-04-22 15:45 45.98141 6.07176 35990 ft 478 kts 195°
2026-04-22 15:45 45.91548 6.05710 36330 ft 481 kts 194°
2026-04-22 15:46 45.88236 6.04987 36558 ft 481 kts 194°
2026-04-22 15:46 45.84924 6.04260 36763 ft 483 kts 194°
2026-04-22 15:46 45.81596 6.03521 36966 ft 484 kts 194°
2026-04-22 15:46 45.78266 6.02781 37101 ft 484 kts 194°
2026-04-22 15:47 45.71659 6.01330 37085 ft 478 kts 194°
2026-04-22 15:47 45.65110 5.99882 37071 ft 478 kts 194°
2026-04-22 15:48 45.58535 5.98443 37068 ft 478 kts 194°
2026-04-22 15:48 45.51940 5.96995 37077 ft 480 kts 194°
2026-04-22 15:49 45.45377 5.95358 37072 ft 476 kts 198°
2026-04-22 15:49 45.38926 5.93312 37090 ft 474 kts 198°
2026-04-22 15:50 45.32452 5.91307 37091 ft 475 kts 198°
2026-04-22 15:50 45.26041 5.89303 37072 ft 475 kts 198°
2026-04-22 15:51 45.19577 5.87301 37070 ft 474 kts 198°
2026-04-22 15:51 45.13143 5.85305 37074 ft 474 kts 198°
2026-04-22 15:52 45.06691 5.83312 37077 ft 473 kts 198°
2026-04-22 15:52 45.00253 5.81326 37067 ft 474 kts 198°
2026-04-22 15:53 44.93806 5.79343 37069 ft 474 kts 198°
2026-04-22 15:53 44.87359 5.77364 37069 ft 473 kts 198°
2026-04-22 15:54 44.81058 5.75434 37063 ft 473 kts 197°
2026-04-22 15:54 44.74669 5.73482 37059 ft 472 kts 197°
2026-04-22 15:55 44.68249 5.71524 37069 ft 473 kts 198°
2026-04-22 15:55 44.61812 5.69566 37062 ft 473 kts 197°
2026-04-22 15:56 44.56456 5.67941 37067 ft 473 kts 197°
2026-04-22 15:56 44.50016 5.65989 37071 ft 474 kts 197°
2026-04-22 15:57 44.43567 5.64041 37075 ft 472 kts 197°
2026-04-22 15:57 44.37223 5.61938 37102 ft 466 kts 206°
2026-04-22 15:58 44.31185 5.58610 37099 ft 467 kts 207°
2026-04-22 15:58 44.25125 5.55305 37086 ft 465 kts 206°
2026-04-22 15:59 44.19088 5.51999 37089 ft 466 kts 207°
2026-04-22 15:59 44.13031 5.48697 37104 ft 468 kts 206°
2026-04-22 16:00 44.06963 5.45396 37099 ft 468 kts 206°
2026-04-22 16:00 44.00923 5.42116 37100 ft 468 kts 206°
2026-04-22 16:01 43.94864 5.38834 37100 ft 467 kts 206°
2026-04-22 16:01 43.88818 5.35561 37119 ft 467 kts 206°
2026-04-22 16:02 43.82748 5.32286 37094 ft 466 kts 206°
2026-04-22 16:02 43.76707 5.29032 37079 ft 466 kts 206°
2026-04-22 16:03 43.70683 5.25794 37059 ft 467 kts 206°
2026-04-22 16:03 43.64622 5.22543 37072 ft 466 kts 206°
2026-04-22 16:04 43.58553 5.19297 37076 ft 467 kts 206°
2026-04-22 16:04 43.52504 5.16065 37069 ft 466 kts 206°
2026-04-22 16:05 43.46489 5.12861 37075 ft 466 kts 206°
2026-04-22 16:05 43.40417 5.09632 37075 ft 467 kts 206°
2026-04-22 16:06 43.37532 5.07658 37105 ft 459 kts 218°
2026-04-22 16:06 43.34893 5.05185 37082 ft 460 kts 220°
2026-04-22 16:06 43.29629 5.00172 37080 ft 460 kts 219°
2026-04-22 16:07 43.24368 4.95257 37072 ft 461 kts 219°
2026-04-22 16:07 43.19136 4.90329 37087 ft 456 kts 219°
2026-04-22 16:08 43.13874 4.85407 37094 ft 457 kts 219°
2026-04-22 16:08 43.08647 4.80519 37096 ft 457 kts 219°
2026-04-22 16:09 43.03245 4.75865 37095 ft 461 kts 213°
2026-04-22 16:09 42.97629 4.71641 37095 ft 459 kts 214°
2026-04-22 16:10 42.92046 4.67389 37082 ft 459 kts 214°
2026-04-22 16:10 42.86441 4.63164 37085 ft 460 kts 213°
2026-04-22 16:11 42.80694 4.58824 37092 ft 460 kts 213°
2026-04-22 16:11 42.75096 4.54614 37085 ft 459 kts 213°
2026-04-22 16:12 42.69494 4.50403 37086 ft 459 kts 213°
2026-04-22 16:12 42.63890 4.46204 37083 ft 459 kts 213°
2026-04-22 16:13 42.58330 4.42044 37081 ft 459 kts 213°
2026-04-22 16:13 42.52719 4.37855 37068 ft 460 kts 213°
2026-04-22 16:14 42.47076 4.33651 37076 ft 462 kts 213°
2026-04-22 16:14 42.41450 4.29470 37070 ft 460 kts 213°
2026-04-22 16:15 42.35899 4.25351 37067 ft 460 kts 213°
2026-04-22 16:15 42.30296 4.21203 37069 ft 462 kts 213°
2026-04-22 16:16 42.24665 4.17044 37067 ft 458 kts 213°
2026-04-22 16:16 42.19051 4.12901 37065 ft 460 kts 213°
2026-04-22 16:17 42.13422 4.08763 37069 ft 461 kts 213°
2026-04-22 16:17 42.07777 4.04622 37071 ft 462 kts 213°
2026-04-22 16:18 42.02139 4.00494 37067 ft 462 kts 213°
2026-04-22 16:18 41.96491 3.96367 37060 ft 461 kts 213°
2026-04-22 16:19 41.90641 3.92945 37076 ft 469 kts 194°
2026-04-22 16:19 41.84223 3.91487 37070 ft 468 kts 192°
2026-04-22 16:20 41.77800 3.90000 37066 ft 467 kts 194°
2026-04-22 16:20 41.71445 3.88523 37068 ft 467 kts 193°
2026-04-22 16:21 41.65047 3.87062 37056 ft 466 kts 193°
2026-04-22 16:21 41.58631 3.85576 37053 ft 467 kts 193°
2026-04-22 16:22 41.48992 3.83369 37042 ft 468 kts 193°
2026-04-22 16:23 41.39433 3.81185 37040 ft 466 kts 193°
2026-04-22 16:23 41.33047 3.79727 37041 ft 464 kts 193°
2026-04-22 16:24 41.23464 3.77547 37043 ft 466 kts 193°
2026-04-22 16:25 41.17066 3.76096 37045 ft 467 kts 193°
2026-04-22 16:25 41.10990 3.73492 37047 ft 461 kts 205°
2026-04-22 16:25 41.08008 3.71926 37046 ft 461 kts 205°
2026-04-22 16:26 41.02017 3.68846 37034 ft 461 kts 204°
2026-04-22 16:26 40.96043 3.65776 36784 ft 457 kts 205°
2026-04-22 16:27 40.93080 3.64248 36195 ft 458 kts 205°
2026-04-22 16:27 40.90108 3.62725 35598 ft 458 kts 205°
2026-04-22 16:27 40.87131 3.61204 35013 ft 458 kts 205°
2026-04-22 16:27 40.84159 3.59682 34387 ft 458 kts 205°
2026-04-22 16:28 40.81181 3.58157 33739 ft 458 kts 205°
2026-04-22 16:28 40.78217 3.56642 33099 ft 456 kts 205°
2026-04-22 16:28 40.75256 3.55132 32447 ft 455 kts 205°
2026-04-22 16:28 40.72338 3.53644 31798 ft 454 kts 205°
2026-04-22 16:29 40.69390 3.52141 31113 ft 453 kts 205°
2026-04-22 16:29 40.66445 3.50641 30415 ft 453 kts 205°
2026-04-22 16:29 40.63498 3.49143 29659 ft 452 kts 205°
2026-04-22 16:29 40.60573 3.47658 28938 ft 450 kts 205°
2026-04-22 16:30 40.58645 3.46680 28465 ft 448 kts 205°
2026-04-22 16:30 40.54768 3.44713 27510 ft 444 kts 205°
2026-04-22 16:30 40.51928 3.43273 26824 ft 442 kts 205°
2026-04-22 16:30 40.49063 3.41824 26123 ft 440 kts 204°
2026-04-22 16:31 40.46213 3.40382 25413 ft 438 kts 204°
2026-04-22 16:31 40.43258 3.39362 24751 ft 443 kts 186°
2026-04-22 16:31 40.40180 3.39374 24179 ft 441 kts 181°
2026-04-22 16:31 40.37118 3.39604 23597 ft 438 kts 179°
2026-04-22 16:32 40.34091 3.39853 22975 ft 433 kts 180°
2026-04-22 16:32 40.31099 3.40010 22402 ft 427 kts 181°
2026-04-22 16:32 40.28157 3.40135 21844 ft 421 kts 181°
2026-04-22 16:32 40.25240 3.40300 21290 ft 417 kts 180°
2026-04-22 16:33 40.22355 3.40486 20742 ft 412 kts 181°
2026-04-22 16:33 40.19506 3.40653 20193 ft 408 kts 181°
2026-04-22 16:33 40.16719 3.40801 19672 ft 404 kts 181°
2026-04-22 16:33 40.13924 3.40955 19137 ft 400 kts 181°
2026-04-22 16:34 40.11154 3.41116 18609 ft 397 kts 181°
2026-04-22 16:34 40.08407 3.41275 18061 ft 393 kts 181°
2026-04-22 16:34 40.05682 3.41428 17530 ft 388 kts 181°
2026-04-22 16:34 40.02998 3.41579 17018 ft 384 kts 181°
2026-04-22 16:35 40.00341 3.41729 16519 ft 380 kts 181°
2026-04-22 16:35 39.97716 3.41876 16001 ft 376 kts 181°
2026-04-22 16:35 39.95981 3.41973 15674 ft 374 kts 181°
2026-04-22 16:35 39.93396 3.42117 15199 ft 371 kts 181°
2026-04-22 16:36 39.89990 3.42308 14551 ft 368 kts 181°
2026-04-22 16:36 39.88272 3.42404 14222 ft 366 kts 181°
2026-04-22 16:36 39.85732 3.42546 13735 ft 364 kts 181°
2026-04-22 16:36 39.83200 3.42688 13230 ft 361 kts 181°
2026-04-22 16:37 39.80699 3.42827 12759 ft 358 kts 180°
2026-04-22 16:37 39.78252 3.42964 12290 ft 355 kts 180°
2026-04-22 16:37 39.75789 3.43101 11820 ft 353 kts 180°
2026-04-22 16:37 39.73347 3.43236 11325 ft 350 kts 180°
2026-04-22 16:38 39.70946 3.42743 10769 ft 344 kts 207°
2026-04-22 16:38 39.69115 3.40979 10368 ft 318 kts 236°
2026-04-22 16:38 39.68286 3.38535 10083 ft 280 kts 268°
2026-04-22 16:38 39.68557 3.36111 9772 ft 273 kts 291°
2026-04-22 16:39 39.69280 3.33842 9528 ft 267 kts 298°
2026-04-22 16:39 39.70182 3.31761 9531 ft 265 kts 300°
2026-04-22 16:39 39.70717 3.29431 8898 ft 281 kts 270°
2026-04-22 16:39 39.70267 3.26924 8223 ft 286 kts 250°
2026-04-22 16:40 39.69506 3.24585 7535 ft 276 kts 249°
2026-04-22 16:40 39.68852 3.22223 7085 ft 283 kts 256°
2026-04-22 16:40 39.68161 3.17385 6102 ft 260 kts 261°
2026-04-22 16:41 39.67833 3.15149 5590 ft 251 kts 259°
2026-04-22 16:41 39.67470 3.12922 5150 ft 249 kts 259°
2026-04-22 16:41 39.67125 3.10758 4722 ft 246 kts 259°
2026-04-22 16:41 39.66790 3.08597 4257 ft 242 kts 259°
2026-04-22 16:42 39.66458 3.06453 3790 ft 241 kts 259°
2026-04-22 16:42 39.66130 3.04357 3330 ft 239 kts 259°
2026-04-22 16:42 39.65801 3.02255 2841 ft 236 kts 259°
2026-04-22 16:42 39.65482 3.00221 2534 ft 226 kts 259°
2026-04-22 16:43 39.65165 2.98225 2519 ft 225 kts 257°
2026-04-22 16:43 39.64750 2.96267 2512 ft 220 kts 252°
2026-04-22 16:43 39.64183 2.94486 2531 ft 215 kts 243°
2026-04-22 16:43 39.63440 2.92841 2529 ft 212 kts 238°
2026-04-22 16:44 39.62661 2.91270 2504 ft 194 kts 238°
2026-04-22 16:44 39.61977 2.89836 2349 ft 186 kts 238°
2026-04-22 16:44 39.61315 2.88431 2103 ft 180 kts 238°
2026-04-22 16:44 39.60661 2.87042 1865 ft 177 kts 238°
2026-04-22 16:45 39.60038 2.85718 1664 ft 171 kts 238°
2026-04-22 16:45 39.59425 2.84415 1446 ft 169 kts 238°
2026-04-22 16:45 39.58836 2.83164 1245 ft 155 kts 237°
2026-04-22 16:45 39.58269 2.81962 1063 ft 159 kts 238°
2026-04-22 16:46 39.57694 2.80735 839 ft 153 kts 238°
2026-04-22 16:46 39.57154 2.79563 637 ft 151 kts 239°
2026-04-22 16:46 39.56617 2.78410 463 ft 147 kts 237°
2026-04-22 16:46 39.56097 2.77315 277 ft 144 kts 237°
2026-04-22 16:47 39.55572 2.76222 84 ft 141 kts 238°
2026-04-22 16:47 39.55111 2.75272 39 ft 103 kts 238°
2026-04-22 16:47 39.54828 2.74664 38 ft 57 kts 238°
2026-04-22 16:47 39.54656 2.74313 39 ft 39 kts 240°
2026-04-22 16:48 39.54562 2.74029 39 ft 29 kts 262°
2026-04-22 16:48 39.54550 2.73842 39 ft 11 kts 270°
2026-04-22 16:48 39.54550 2.73821 39 ft 0 kts 270°
2026-04-22 16:49 39.54550 2.73819 39 ft 1 kts 270°
2026-04-22 16:50 39.54550 2.73812 39 ft 1 kts 270°
2026-04-22 16:50 39.54550 2.73793 39 ft 3 kts 270°
2026-04-22 16:50 39.54550 2.73759 39 ft 5 kts 270°
2026-04-22 16:50 39.54555 2.73710 39 ft 5 kts 284°
2026-04-22 16:51 39.54569 2.73668 37 ft 4 kts 306°
2026-04-22 16:51 39.54603 2.73629 39 ft 10 kts 322°
2026-04-22 16:51 39.54660 2.73600 39 ft 8 kts 347°
2026-04-22 16:51 39.54690 2.73612 39 ft 1 kts 43°
2026-04-22 16:52 39.54698 2.73628 39 ft 4 kts 58°
2026-04-22 16:52 39.54712 2.73657 39 ft 0 kts 58°